This demonstration page uses our WeatherBlox Daily Observations layout. Learn more.

Left ArrowRight Arrow

Hourly Observations for February 13, 2018

Temp ( °F °C ) Dew Point ( °F °C ) Humidity (%) Winds ( mph kmh ) Pressure ( in mb ) Visibility ( mi km ) Precip ( " mm )
12:53 am 00:53 Clear 18 -7.8 12 -11.1 77 77 ESE 15 24 30.48 1032 10 16 0.00 0.00
1:53 am 01:53 Clear 18 -7.8 13 -10.6 81 81 SE 13 20 30.46 1032 10 16 0.00 0.00
2:53 am 02:53 Clear 18 -7.8 13 -10.6 81 81 SE 12 19 30.44 1031 10 16 0.00 0.00
3:53 am 03:53 Clear 18 -7.8 14 -10 84 84 SE 10 17 30.41 1030 10 16 0.00 0.00
4:53 am 04:53 Clear 19 -7.2 15 -9.4 84 84 SSE 9 15 30.38 1029 10 16 0.00 0.00
5:53 am 05:53 Clear 19 -7.2 15 -9.4 84 84 SSE 8 13 30.37 1028 10 16 0.00 0.00
6:53 am 06:53 Clear 20 -6.7 16 -8.9 85 85 SSE 8 13 30.36 1028 10 16 0.00 0.00
7:53 am 07:53 Sunny 21 -6.1 17 -8.3 85 85 S 9 15 30.35 1028 10 16 0.00 0.00
8:53 am 08:53 Sunny 22 -5.6 18 -7.8 85 85 S 10 17 30.35 1028 10 16 0.00 0.00
9:53 am 09:53 Sunny 26 -3.3 20 -6.7 78 78 S 13 20 30.32 1027 10 16 0.00 0.00
10:53 am 10:53 Sunny 29 -1.7 22 -5.6 75 75 S 14 22 30.30 1026 10 16 0.00 0.00
11:53 am 11:53 Sunny 30 -1.1 22 -5.6 72 72 SSW 13 20 30.29 1026 10 16 0.00 0.00
12:53 pm 12:53 Sunny 33 0.6 23 -5 66 66 SSW 14 22 30.25 1024 10 16 0.00 0.00
1:53 pm 13:53 Sunny 36 2.2 24 -4.4 62 62 SW 9 15 30.24 1024 10 16 0.00 0.00
2:53 pm 14:53 Sunny 37 2.8 23 -5 57 57 SSW 10 17 30.21 1023 10 16 0.00 0.00
3:53 pm 15:53 Sunny 38 3.3 26 -3.3 62 62 WSW 6 9 30.21 1023 10 16 0.00 0.00
4:53 pm 16:53 Sunny 37 2.8 27 -2.8 67 67 WSW 5 7 30.20 1023 10 16 0.00 0.00
5:53 pm 17:53 Sunny 34 1.1 26 -3.3 73 73 NW 3 6 30.21 1023 10 16 0.00 0.00
6:53 pm 18:53 Clear 30 -1.1 25 -3.9 82 82 NW 3 6 30.22 1023 10 16 0.00 0.00
7:53 pm 19:53 Clear 30 -1.1 25 -3.9 82 82 Calm 30.19 1023 10 16 0.00 0.00
8:53 pm 20:53 Clear 32 0 24 -4.4 73 73 SSW 5 7 30.19 1022 10 16 0.00 0.00
9:53 pm 21:53 Clear 27 -2.8 22 -5.6 81 81 SSE 3 6 30.19 1022 10 16 0.00 0.00
10:53 pm 22:53 Clear 29 -1.7 24 -4.4 82 82 S 6 9 30.16 1021 10 16 0.00 0.00
11:53 pm 23:53 Clear 28 -2.2 23 -5 81 81 S 6 9 30.14 1021 10 16 0.00 0.00

Powered by AerisWeather